Regional Weather Roundup
Issued by NWS Green Bay, WI

Home | Current Version | Previous Version | Graphics & Text | Print | Product List | Glossary Off
Versions: 1 2 3 4 5 6 7 8 9 10 11 12 13 14 15 16 17 18 19 20 21 22 23 24 25 26 27 28 29 30 31 32 33 34 35 36 37 38 39 40 41 42 43 44 45 46 47 48 49 50

000
ASUS43 KGRB 311000
RWRGRB

NORTH-CENTRAL AND NORTHEAST WISCONSIN REGIONAL WEATHER ROUNDUP
NATIONAL WEATHER SERVICE GREEN BAY WI
500 AM CDT TUE MAY 31 2016

WIZ005-009-010>012-018-019-311100-
NORTH CENTRAL WISCONSIN

CITY           SKY/WX    TMP DP  RH WIND       PRES   REMARKS
IRONWOOD       CLOUDY    50  46  87 E9        30.00R
MANITOWISH WTR NOT AVBL
ARBOR VITAE    NOT AVBL
EAGLE RIVER    NOT AVBL
LAND O LAKES   NOT AVBL
RHINELANDER    MOCLDY    52  48  86 E8        30.05R
PHILLIPS       CLOUDY    57  49  74 E5        29.99S
ANTIGO         NOT AVBL
TOMAHAWK       NOT AVBL
MERRILL        NOT AVBL
$$

WIZ013-073-311100-
NORTHEAST WISCONSIN

CITY           SKY/WX    TMP DP  RH WIND       PRES   REMARKS
IRON MOUNTAIN  CLOUDY    47  41  80 N5        30.07R
MARINETTE      CLOUDY    50  45  83 NE5       30.09R
$$

WIZ017-030-035>037-045-311100-
CENTRAL WISCONSIN

CITY           SKY/WX    TMP DP  RH WIND       PRES   REMARKS
MEDFORD        NOT AVBL
WAUSAU         CLOUDY    59  51  75 E12       30.00F
MOSINEE        NOT AVBL
MARSHFIELD     CLOUDY    63  55  75 E9        29.96F
WISC RAPIDS    CLOUDY    62  55  77 E6        29.99F
STEVENS POINT  NOT AVBL
WAUPACA        CLOUDY    62  60  93 NE5       30.02F
SHAWANO        CLOUDY    58  50  77 E8        30.06R
CLINTONVILLE   NOT AVBL
WAUTOMA        CLOUDY   N/A N/A N/A CALM      30.00F
$$

WIZ038-039-048-051-311100-
FOX VALLEY

CITY           SKY/WX    TMP DP  RH WIND       PRES   REMARKS
NWS GREEN BAY  CLOUDY    58  53  84 NE14      30.05R
APPLETON       NOT AVBL
OSHKOSH        CLOUDY    66  57  72 CALM      30.01F
FOND DU LAC    CLOUDY    64  58  80 S7        30.01F
$$

WIZ022-050-052-311100-
EAST CENTRAL WISCONSIN

CITY           SKY/WX    TMP DP  RH WIND       PRES   REMARKS
EPHRAIM        FAIR      50  47  88 NE5       30.07R
STURGEON BAY   NOT AVBL
MANITOWOC      NOT AVBL
SHEBOYGAN      MOCLDY    60  55  83 N9        30.05R
$$

LMZ563-521-522-541>543-311100-
LAKESHORE

STATION/POSITION TIME  TEMP    WIND        PRES    VSBY  WAVE
                       AIR SEA DIR/SP/G                  HT/PER
                 (UTC) (F)     (DEG/KT/KT) (MB)    (MI)  (FT/S)
SHEBOYGAN LKSHOR 0900   63     240/  4/  4 1016.0R
KEWAUNEE LKSHORE 0900   53      20/ 12/ 18 1016.4R
NORTHPORT PIER   0900   53      40/  9/ 11 1017.9R
N MID LAKE BUOY  0850   50 49   20/ 10/ 12 1017.5R         2/ 4
CHAMBERS ISLAND  0900   53      10/ 16/ 19 1017.9R
MENOMINEE LKSHOR 0906           20/ 14/ 15 1017.0R
$$




USA.gov is the U.S. government's official web portal to all federal, state and local government web resources and services.